Dillon, MT

12:01 AM MDT on September 28, 2016 (GMT -0600)
Dillon

Weather History for KDLN - November, 2012

Change the Weather History Date:

Thursday, November 8, 2012

  Actual Average Record
Temperature  
Mean Temperature 31 °F 34 °F  
Max Temperature 36 °F 46 °F 61 °F (1999)
Min Temperature 25 °F 23 °F 3 °F (1966)
Degree Days  
Heating Degree Days 34    
Month to date heating degree days 152  
Since 1 July heating degree days 1018  
Cooling Degree Days 0    
Month to date cooling degree days 0  
Year to date cooling degree days 242  
Moisture  
Dew Point 26 °F    
Average Humidity 78    
Maximum Humidity 92    
Minimum Humidity 64    
Precipitation  
Precipitation 0.09 in 0.02 in 0.54 in (2010)
Month to date precipitation 0.09 0.12  
Year to date precipitation 5.91 10.05  
Snow  
Snow 0.00 in - - ()
Snow Depth 0.00 in    
Sea Level Pressure  
Sea Level Pressure 29.73 in    
Wind  
Wind Speed 14 mph (NE)    
Max Wind Speed 23 mph    
Max Gust Speed 30 mph    
Visibility 6 miles    
Events Fog , Snow    
T = Trace of Precipitation, MM = Missing Value Source: NWS Daily Summary

Daily Weather History Graph

Daily Weather History Graph

Search for Another Location

Airport or City:

Trip Planner

Search our weather history database for the weather conditions in past years. The results will help you decide how hot, cold, wet, or windy it might be!

Date:

Astronomy

Nov. 08, 2012 Rise Set
Actual Time 7:19 AM MST 5:07 PM MST
Civil Twilight 6:48 AM MST 5:39 PM MST
Nautical Twilight 6:12 AM MST 6:14 PM MST
Astronomical Twilight 5:38 AM MST 6:48 PM MST
Moon 1:03 AM MST (11/8) 2:04 PM MST (11/8)
Length of Visible Light 10h 50m
Length of Day
9h 48m
Waning Crescent, 32% of the Moon is Illuminated
Nov 8
Waning Crescent
Nov 13
New
Nov 20
First Quarter
Nov 28
Full
Dec 6
Last Quarter

Hourly Weather History & Observations

Time (MST) Temp. Windchill Dew Point Humidity Pressure Visibility Wind Dir Wind Speed Gust Speed Precip Events Conditions
12:53 AM 36.0 °F 29.0 °F 25.0 °F 64% 29.84 in 10.0 mi NE 9.2 mph - N/A   Overcast
1:53 AM 35.1 °F 26.9 °F 27.0 °F 72% 29.84 in 7.0 mi NE 11.5 mph - 0.00 in Snow Light Snow
2:53 AM 34.0 °F 26.0 °F 27.0 °F 75% 29.83 in 10.0 mi NE 10.4 mph - 0.00 in   Overcast
3:53 AM 33.1 °F 24.4 °F 26.1 °F 75% 29.82 in 10.0 mi ENE 11.5 mph - N/A   Mostly Cloudy
4:40 AM 32.0 °F 22.5 °F 26.6 °F 80% 29.87 in 10.0 mi NNE 12.7 mph - N/A   Overcast
4:53 AM 32.0 °F 23.6 °F 28.0 °F 85% 29.83 in 9.0 mi NNE 10.4 mph - 0.00 in Snow Light Snow
5:41 AM 30.2 °F 19.8 °F 26.6 °F 86% 29.85 in 10.0 mi ENE 13.8 mph - 0.00 in   Overcast
5:53 AM 30.9 °F 20.2 °F 27.0 °F 85% 29.81 in 10.0 mi NE 15.0 mph - 0.00 in   Overcast
6:06 AM 30.2 °F 18.5 °F 26.6 °F 86% 29.84 in 5.0 mi NE 17.3 mph - 0.00 in Snow Light Snow
6:53 AM 30.0 °F 19.5 °F 28.0 °F 92% 29.83 in 10.0 mi NE 13.8 mph - 0.00 in   Overcast
7:07 AM 30.2 °F 20.2 °F 28.4 °F 93% 29.83 in 10.0 mi NE 12.7 mph - N/A   Overcast
7:16 AM 30.2 °F 19.8 °F 28.4 °F 93% 29.82 in 10.0 mi NE 13.8 mph - N/A   Overcast
7:53 AM 30.0 °F 19.5 °F 28.0 °F 92% 29.83 in 10.0 mi NE 13.8 mph - N/A   Overcast
8:31 AM 30.2 °F 21.3 °F 28.4 °F 93% 29.80 in 1.8 mi NNE 10.4 mph - 0.00 in Snow Light Snow
8:51 AM 30.2 °F 21.9 °F 28.4 °F 93% 29.80 in 2.5 mi NNE 9.2 mph - 0.00 in Snow Light Snow
8:53 AM 30.0 °F 19.5 °F 28.0 °F 92% 29.83 in 2.5 mi NNE 13.8 mph - 0.00 in Snow Light Snow
9:51 AM 30.2 °F 19.3 °F 28.4 °F 93% 29.77 in 5.0 mi NE 15.0 mph - 0.00 in Snow Light Snow
9:53 AM 30.0 °F 20.0 °F 28.0 °F 92% 29.81 in 5.0 mi NE 12.7 mph - 0.00 in Snow Light Snow
10:53 AM 30.0 °F 19.1 °F 28.0 °F 92% 29.78 in 10.0 mi NE 15.0 mph - 0.00 in   Overcast
11:19 AM 30.2 °F 20.2 °F 28.4 °F 93% 29.75 in 10.0 mi NE 12.7 mph - N/A   Overcast
11:32 AM 30.2 °F 20.8 °F 28.4 °F 93% 29.74 in 10.0 mi NE 11.5 mph - N/A   Overcast
11:53 AM 30.0 °F 20.5 °F 28.0 °F 92% 29.78 in 8.0 mi NE 11.5 mph - 0.00 in Snow Light Snow
12:16 PM 30.2 °F 19.8 °F 28.4 °F 93% 29.72 in 8.0 mi NE 13.8 mph - 0.00 in Snow Light Snow
12:53 PM 30.9 °F 21.2 °F 28.9 °F 92% 29.74 in 10.0 mi NE 12.7 mph - 0.00 in   Overcast
1:11 PM 32.0 °F 24.2 °F 28.4 °F 87% 29.70 in 10.0 mi NE 9.2 mph - N/A   Overcast
1:26 PM 32.0 °F 24.2 °F 28.4 °F 87% 29.70 in 10.0 mi NE 9.2 mph - N/A   Overcast
1:50 PM 32.0 °F 22.5 °F 28.4 °F 87% 29.69 in 10.0 mi NE 12.7 mph - N/A   Overcast
1:53 PM 32.0 °F 22.1 °F 28.0 °F 85% 29.73 in 10.0 mi NE 13.8 mph - N/A   Overcast
2:19 PM 30.2 °F 19.8 °F 28.4 °F 93% 29.68 in 1.8 mi NE 13.8 mph - 0.00 in Snow Light Snow
2:39 PM 30.2 °F 19.3 °F 28.4 °F 93% 29.67 in 3.0 mi NE 15.0 mph - 0.00 in Snow Light Snow
2:48 PM 30.2 °F 18.9 °F 28.4 °F 93% 29.66 in 6.0 mi NE 16.1 mph - 0.00 in Snow Light Snow
2:53 PM 30.9 °F 21.2 °F 28.0 °F 89% 29.72 in 8.0 mi NNE 12.7 mph - 0.00 in   Overcast
3:53 PM 30.9 °F 20.2 °F 28.0 °F 89% 29.72 in 10.0 mi NE 15.0 mph - N/A   Overcast
4:10 PM 30.2 °F 18.9 °F 28.4 °F 93% 29.66 in 10.0 mi NNE 16.1 mph - N/A   Overcast
4:53 PM 28.9 °F 17.3 °F 26.1 °F 89% 29.72 in 10.0 mi NE 16.1 mph - N/A   Overcast
5:53 PM 28.0 °F 14.9 °F 26.1 °F 92% 29.72 in 10.0 mi NE 19.6 mph - N/A   Overcast
6:53 PM 28.0 °F 15.7 °F 26.1 °F 92% 29.73 in 10.0 mi NE 17.3 mph - N/A   Overcast
7:23 PM 28.4 °F 17.5 °F 26.6 °F 93% 29.67 in 10.0 mi NE 13.8 mph - N/A   Overcast
7:53 PM 28.0 °F 15.3 °F 25.0 °F 88% 29.75 in 10.0 mi ENE 18.4 mph - N/A   Overcast
8:12 PM 28.4 °F 16.6 °F 24.8 °F 86% 29.66 in 8.0 mi East 16.1 mph 26.5 mph N/A   Overcast
8:28 PM 28.4 °F 16.2 °F 24.8 °F 86% 29.66 in 2.5 mi ENE 17.3 mph - 0.00 in Snow Light Snow
8:37 PM 28.4 °F 18.5 °F 24.8 °F 86% 29.66 in 1.2 mi ENE 11.5 mph - 0.01 in Snow Light Snow
8:43 PM 26.6 °F 16.2 °F 24.8 °F 93% 29.66 in 0.8 mi NE 11.5 mph - 0.01 in Snow Light Snow
8:49 PM 26.6 °F 16.8 °F 24.8 °F 93% 29.66 in 1.0 mi NE 10.4 mph - 0.01 in Snow Light Snow
8:53 PM 27.0 °F 18.0 °F 25.0 °F 92% 29.74 in 1.0 mi NE 9.2 mph - 0.01 in Snow Light Snow
8:55 PM 26.6 °F 16.8 °F 24.8 °F 93% 29.66 in 1.2 mi NE 10.4 mph - 0.01 in Snow Light Snow
9:18 PM 26.6 °F 15.2 °F 24.8 °F 93% 29.66 in 1.0 mi NE 13.8 mph - 0.01 in Snow Light Snow
9:26 PM 26.6 °F 14.7 °F 24.8 °F 93% 29.65 in 0.8 mi NE 15.0 mph - 0.02 in Snow Light Snow
9:37 PM 26.6 °F 14.3 °F 24.8 °F 93% 29.64 in 1.0 mi NE 16.1 mph - 0.02 in Snow Light Snow
9:53 PM 26.1 °F 13.6 °F 24.1 °F 92% 29.73 in 1.0 mi NE 16.1 mph - 0.02 in Snow Light Snow
10:10 PM 24.8 °F 11.9 °F 23.0 °F 93% 29.63 in 0.8 mi NE 16.1 mph - 0.01 in Snow Light Snow
10:23 PM 24.8 °F 14.0 °F 23.0 °F 93% 29.67 in 1.2 mi NE 11.5 mph 20.7 mph 0.01 in Snow Light Snow
10:43 PM 24.8 °F 12.4 °F 23.0 °F 93% 29.64 in 0.8 mi NE 15.0 mph - 0.01 in Snow Light Snow
10:53 PM 25.0 °F 13.6 °F 23.0 °F 92% 29.74 in 0.5 mi ENE 12.7 mph - 0.02 in Fog , Snow Snow
11:19 PM 24.8 °F 15.3 °F 23.0 °F 93% 29.65 in 1.2 mi ENE 9.2 mph - 0.01 in Snow Light Snow
11:26 PM 24.8 °F 15.3 °F 23.0 °F 93% 29.65 in 1.5 mi East 9.2 mph - 0.02 in Snow Light Snow
11:37 PM 24.8 °F 14.6 °F 23.0 °F 93% 29.65 in 0.8 mi ENE 10.4 mph - 0.02 in Snow Light Snow
11:49 PM 24.8 °F 14.6 °F 23.0 °F 93% 29.65 in 0.5 mi ENE 10.4 mph - 0.03 in Fog , Snow Snow
11:53 PM 25.0 °F 14.2 °F 23.0 °F 92% 29.73 in 0.5 mi NE 11.5 mph - 0.04 in Fog , Snow Snow